Change the Weather History Date:

Friday, November 26, 2010

  Actual Average Record
Temperature  
Mean Temperature 47 °F -  
Max Temperature 57 °F 70 °F 83 °F (1985)
Min Temperature 37 °F 55 °F 32 °F (1972)
Degree Days  
Heating Degree Days 18    
Moisture  
Dew Point 38 °F    
Average Humidity 76    
Maximum Humidity 96    
Minimum Humidity 35    
Precipitation  
Precipitation 0.48 in - - ()
Sea Level Pressure  
Sea Level Pressure 30.15 in    
Wind  
Wind Speed 22 mph (North)    
Max Wind Speed 29 mph    
Max Gust Speed 36 mph    
Visibility 9 miles    
Events Rain    
Averages and records for this station are not official NWS values.
T = Trace of Precipitation, MM = Missing Value Source: NWS Daily Summary

Daily Weather History Graph

Daily Weather History Graph

Search for Another Location

Airport or City:

Trip Planner

Search our weather history database for the weather conditions in past years. The results will help you decide how hot, cold, wet, or windy it might be!

Date:

Astronomy

Nov. 26, 2010 Rise Set
Actual Time 6:56 AM CST 5:27 PM CST
Civil Twilight 6:31 AM CST 5:53 PM CST
Nautical Twilight 6:02 AM CST 6:22 PM CST
Astronomical Twilight 5:33 AM CST 6:50 PM CST
Moon 10:29 PM CST (11/26) 11:10 AM CST (11/26)
Length of Visible Light 11h 22m
Length of Day
10h 31m
Waning Gibbous, 73% of the Moon is Illuminated
Nov 26
Waning Gibbous
Nov 28
Last Quarter
Dec 5
New
Dec 13
First Quarter
Dec 21
Full

Hourly Weather History & Observations

Time (CST) Temp. Windchill Dew Point Humidity Pressure Visibility Wind Dir Wind Speed Gust Speed Precip Events Conditions
12:06 AM 48.2 °F - 44.6 °F 87% 29.98 in 10.0 mi North 26.5 mph 33.4 mph N/A   Scattered Clouds
12:53 AM 48.0 °F - 44.1 °F 86% 29.99 in 10.0 mi North 23.0 mph 29.9 mph N/A   Scattered Clouds
1:05 AM 48.2 °F - 44.6 °F 87% 29.99 in 10.0 mi North 27.6 mph 34.5 mph 0.01 in Rain Light Rain
1:20 AM 48.2 °F - 44.6 °F 87% 29.99 in 10.0 mi North 24.2 mph 34.5 mph 0.01 in   Scattered Clouds
1:53 AM 48.0 °F - 42.1 °F 80% 30.00 in 10.0 mi North 21.9 mph 31.1 mph 0.01 in   Scattered Clouds
2:53 AM 46.9 °F - 37.9 °F 71% 30.01 in 10.0 mi North 26.5 mph 34.5 mph N/A   Scattered Clouds
3:22 AM 46.4 °F 37.4 °F 37.4 °F 71% 30.01 in 10.0 mi North 28.8 mph 35.7 mph N/A   Mostly Cloudy
3:53 AM 46.9 °F - 37.0 °F 68% 30.01 in 10.0 mi North 25.3 mph 34.5 mph N/A   Mostly Cloudy
4:53 AM 46.9 °F - 37.9 °F 71% 30.04 in 10.0 mi North 25.3 mph 33.4 mph 0.00 in   Overcast
5:53 AM 46.0 °F 37.8 °F 39.0 °F 76% 30.09 in 10.0 mi North 23.0 mph 33.4 mph 0.00 in Rain Light Rain
6:42 AM 42.8 °F 32.7 °F 41.0 °F 93% 30.11 in 10.0 mi North 27.6 mph 33.4 mph 0.04 in Rain Light Rain
6:53 AM 43.0 °F 33.1 °F 39.9 °F 89% 30.12 in 10.0 mi North 26.5 mph 35.7 mph 0.04 in Rain Light Rain
7:49 AM 42.8 °F 33.3 °F 41.0 °F 93% 30.13 in 2.5 mi North 24.2 mph 31.1 mph 0.19 in Rain Heavy Rain
7:53 AM 42.1 °F 32.1 °F 41.0 °F 96% 30.14 in 3.0 mi North 25.3 mph 31.1 mph 0.19 in Rain Rain
8:09 AM 42.8 °F 34.3 °F 41.0 °F 93% 30.16 in 2.0 mi North 19.6 mph - 0.09 in Rain Heavy Rain
8:15 AM 42.8 °F 34.0 °F 41.0 °F 93% 30.16 in 1.8 mi North 20.7 mph - 0.11 in Rain Rain
8:18 AM 42.8 °F 33.8 °F 41.0 °F 93% 30.16 in 3.0 mi North 21.9 mph - 0.11 in Rain Light Rain
8:53 AM 43.0 °F 34.5 °F 39.9 °F 89% 30.17 in 10.0 mi North 19.6 mph - 0.11 in   Mostly Cloudy
9:35 AM 42.8 °F 34.5 °F 39.2 °F 87% 30.21 in 5.0 mi North 18.4 mph - 0.05 in Rain Rain
9:53 AM 43.0 °F 34.8 °F 39.9 °F 89% 30.23 in 5.0 mi North 18.4 mph 26.5 mph 0.09 in Rain Heavy Rain
10:12 AM 42.8 °F 35.1 °F 39.2 °F 87% 30.23 in 7.0 mi North 16.1 mph - 0.03 in Rain Rain
10:53 AM 44.1 °F 35.2 °F 39.0 °F 82% 30.22 in 10.0 mi North 23.0 mph 26.5 mph 0.04 in Rain Light Rain
11:53 AM 46.0 °F 38.3 °F 39.0 °F 76% 30.21 in 10.0 mi North 20.7 mph - N/A   Partly Cloudy
12:53 PM 51.1 °F - 37.9 °F 61% 30.19 in 10.0 mi North 21.9 mph - N/A   Clear
1:53 PM 54.0 °F - 36.0 °F 51% 30.19 in 10.0 mi North 18.4 mph - N/A   Clear
2:53 PM 57.9 °F - 34.0 °F 41% 30.18 in 10.0 mi North 16.1 mph - N/A   Clear
3:53 PM 57.9 °F - 30.0 °F 35% 30.18 in 10.0 mi North 16.1 mph - N/A   Clear
4:53 PM 55.0 °F - 28.0 °F 35% 30.20 in 10.0 mi North 15.0 mph - N/A   Clear
5:53 PM 48.0 °F - 34.0 °F 58% 30.22 in 10.0 mi North 8.1 mph - N/A   Clear
6:53 PM 45.0 °F 40.1 °F 35.1 °F 68% 30.23 in 10.0 mi North 9.2 mph - N/A   Clear
7:53 PM 43.0 °F 38.2 °F 34.0 °F 71% 30.25 in 10.0 mi North 8.1 mph - N/A   Clear
8:53 PM 42.1 °F 36.6 °F 34.0 °F 73% 30.26 in 10.0 mi North 9.2 mph - N/A   Clear
9:53 PM 41.0 °F 35.2 °F 34.0 °F 76% 30.27 in 10.0 mi North 9.2 mph - N/A   Clear
10:53 PM 37.9 °F 32.1 °F 32.0 °F 79% 30.28 in 10.0 mi North 8.1 mph - N/A   Clear
11:53 PM 37.0 °F 31.0 °F 30.9 °F 79% 30.28 in 10.0 mi North 8.1 mph - N/A   Clear